TimeCST,TemperatureF,Dew PointF,Humidity,Sea Level PressureIn,VisibilityMPH,Wind Direction,Wind SpeedMPH,Gust SpeedMPH,PrecipitationIn,Events,Conditions,WindDirDegrees,DateUTC
12:15 AM,55.4,53.6,94,30.20,2.0,Calm,Calm,-,N/A,,Overcast,0,2012-12-05 06:15:00
12:35 AM,55.4,55.4,100,30.20,1.2,Calm,Calm,-,N/A,,Overcast,0,2012-12-05 06:35:00
12:55 AM,55.4,55.4,100,30.20,1.0,Calm,Calm,-,N/A,,Overcast,0,2012-12-05 06:55:00
1:15 AM,57.2,55.4,94,30.20,1.2,Calm,Calm,-,N/A,,Overcast,0,2012-12-05 07:15:00
1:35 AM,57.2,55.4,94,30.21,1.2,NW,3.5,-,N/A,Rain,Light Rain,320,2012-12-05 07:35:00
1:55 AM,57.2,55.4,94,30.20,2.0,NNE,3.5,-,N/A,Rain,Light Rain,20,2012-12-05 07:55:00
2:15 AM,57.2,55.4,94,30.20,2.5,NNE,4.6,-,N/A,,Overcast,20,2012-12-05 08:15:00
2:35 AM,57.2,55.4,94,30.20,3.0,NNE,9.2,-,N/A,,Overcast,30,2012-12-05 08:35:00
2:55 AM,57.2,55.4,94,30.20,9.0,NE,6.9,-,N/A,,Overcast,50,2012-12-05 08:55:00
3:15 AM,55.4,53.6,94,30.20,8.0,NE,6.9,-,N/A,,Overcast,40,2012-12-05 09:15:00
3:35 AM,55.4,53.6,94,30.20,7.0,NE,6.9,-,N/A,,Overcast,40,2012-12-05 09:35:00
3:55 AM,55.4,53.6,94,30.20,8.0,NNE,6.9,-,N/A,,Overcast,20,2012-12-05 09:55:00
4:15 AM,55.4,53.6,94,30.20,7.0,NNE,5.8,-,N/A,,Overcast,20,2012-12-05 10:15:00
4:35 AM,55.4,53.6,94,30.20,7.0,North,6.9,-,N/A,,Overcast,10,2012-12-05 10:35:00
4:55 AM,55.4,51.8,88,30.21,5.0,North,6.9,-,N/A,,Overcast,10,2012-12-05 10:55:00
5:15 AM,53.6,51.8,94,30.22,4.0,North,8.1,-,N/A,,Overcast,10,2012-12-05 11:15:00
5:35 AM,53.6,51.8,94,30.23,5.0,NNE,6.9,-,N/A,,Overcast,20,2012-12-05 11:35:00
5:55 AM,53.6,50.0,88,30.23,5.0,NNE,9.2,-,N/A,,Overcast,30,2012-12-05 11:55:00
6:15 AM,53.6,50.0,88,30.23,7.0,NNE,9.2,-,N/A,,Overcast,20,2012-12-05 12:15:00
6:35 AM,53.6,50.0,88,30.24,7.0,NNE,5.8,-,N/A,,Overcast,20,2012-12-05 12:35:00
6:55 AM,53.6,50.0,88,30.25,8.0,NNE,6.9,-,N/A,,Overcast,30,2012-12-05 12:55:00
8:55 AM,55.4,46.4,72,30.27,10.0,ENE,9.2,-,N/A,,Overcast,70,2012-12-05 14:55:00
9:15 AM,57.2,44.6,63,30.27,10.0,ENE,13.8,19.6,N/A,,Overcast,70,2012-12-05 15:15:00
9:35 AM,57.2,41.0,55,30.27,10.0,ENE,15.0,-,N/A,,Overcast,70,2012-12-05 15:35:00
9:55 AM,59.0,41.0,51,30.27,10.0,ENE,12.7,17.3,N/A,,Overcast,60,2012-12-05 15:55:00
10:15 AM,59.0,41.0,51,30.26,10.0,East,13.8,18.4,N/A,,Mostly Cloudy,80,2012-12-05 16:15:00
10:35 AM,62.6,39.2,42,30.25,10.0,ENE,12.7,17.3,N/A,,Scattered Clouds,60,2012-12-05 16:35:00
10:55 AM,62.6,37.4,39,30.25,10.0,East,10.4,-,N/A,,Partly Cloudy,80,2012-12-05 16:55:00
11:15 AM,62.6,39.2,42,30.24,10.0,NE,11.5,-,N/A,,Partly Cloudy,50,2012-12-05 17:15:00
11:35 AM,62.6,39.2,42,30.23,10.0,NE,12.7,16.1,N/A,,Scattered Clouds,40,2012-12-05 17:35:00
11:55 AM,62.6,39.2,42,30.21,10.0,ENE,11.5,-,N/A,,Partly Cloudy,60,2012-12-05 17:55:00
12:15 PM,62.6,39.2,42,30.20,10.0,ENE,12.7,19.6,N/A,,Clear,70,2012-12-05 18:15:00
12:35 PM,64.4,39.2,40,30.20,10.0,NE,11.5,16.1,N/A,,Partly Cloudy,40,2012-12-05 18:35:00
1:15 PM,64.4,37.4,37,30.18,10.0,NE,10.4,17.3,N/A,,Mostly Cloudy,40,2012-12-05 19:15:00
1:35 PM,64.4,37.4,37,30.17,10.0,NNE,11.5,17.3,N/A,,Mostly Cloudy,30,2012-12-05 19:35:00
1:55 PM,62.6,37.4,39,30.17,10.0,NE,9.2,16.1,N/A,,Overcast,50,2012-12-05 19:55:00
2:15 PM,62.6,35.6,37,30.17,10.0,NNE,12.7,-,N/A,,Overcast,20,2012-12-05 20:15:00
2:35 PM,64.4,35.6,34,30.16,10.0,NE,10.4,-,N/A,,Overcast,50,2012-12-05 20:35:00
2:55 PM,64.4,35.6,34,30.16,10.0,NNE,8.1,-,N/A,,Mostly Cloudy,30,2012-12-05 20:55:00
3:15 PM,62.6,35.6,37,30.16,10.0,NNE,10.4,-,N/A,,Mostly Cloudy,30,2012-12-05 21:15:00
3:35 PM,62.6,33.8,34,30.17,10.0,NNE,10.4,-,N/A,,Overcast,30,2012-12-05 21:35:00
3:55 PM,62.6,32.0,32,30.17,10.0,ENE,11.5,-,N/A,,Overcast,60,2012-12-05 21:55:00
4:15 PM,62.6,32.0,32,30.17,10.0,NE,6.9,-,N/A,,Overcast,50,2012-12-05 22:15:00
4:35 PM,62.6,32.0,32,30.17,10.0,NE,5.8,-,N/A,,Overcast,50,2012-12-05 22:35:00
4:55 PM,60.8,32.0,34,30.17,10.0,ENE,5.8,-,N/A,,Overcast,70,2012-12-05 22:55:00
5:15 PM,59.0,32.0,36,30.17,10.0,ENE,3.5,-,N/A,,Overcast,60,2012-12-05 23:15:00
5:35 PM,59.0,32.0,36,30.16,10.0,NE,3.5,-,N/A,,Scattered Clouds,50,2012-12-05 23:35:00
5:55 PM,57.2,32.0,38,30.16,10.0,ENE,3.5,-,N/A,,Clear,60,2012-12-05 23:55:00
6:15 PM,55.4,32.0,41,30.16,10.0,Calm,Calm,-,N/A,,Clear,0,2012-12-06 00:15:00
6:35 PM,51.8,35.6,54,30.16,10.0,NNE,3.5,-,N/A,,Clear,30,2012-12-06 00:35:00
6:55 PM,53.6,33.8,47,30.15,10.0,ENE,3.5,-,N/A,,Clear,70,2012-12-06 00:55:00
7:15 PM,53.6,33.8,47,30.14,10.0,East,3.5,-,N/A,,Clear,80,2012-12-06 01:15:00
7:35 PM,53.6,32.0,44,30.14,10.0,NE,3.5,-,N/A,,Clear,50,2012-12-06 01:35:00
7:55 PM,51.8,33.8,50,30.15,10.0,NE,3.5,-,N/A,,Clear,50,2012-12-06 01:55:00
8:15 PM,51.8,33.8,50,30.14,10.0,NE,3.5,-,N/A,,Clear,40,2012-12-06 02:15:00
8:35 PM,50.0,33.8,54,30.14,10.0,NNE,3.5,-,N/A,,Clear,20,2012-12-06 02:35:00
8:55 PM,50.0,33.8,54,30.14,10.0,NNE,4.6,-,N/A,,Clear,20,2012-12-06 02:55:00
9:15 PM,48.2,33.8,58,30.14,10.0,North,4.6,-,N/A,,Clear,350,2012-12-06 03:15:00
9:55 PM,46.4,35.6,66,30.13,10.0,NNW,3.5,-,N/A,,Scattered Clouds,340,2012-12-06 03:55:00
10:15 PM,50.0,32.0,50,30.12,10.0,Calm,Calm,-,N/A,,Overcast,0,2012-12-06 04:15:00
10:35 PM,50.0,32.0,50,30.12,10.0,Calm,Calm,-,N/A,,Overcast,0,2012-12-06 04:35:00
10:55 PM,48.2,35.6,62,30.11,10.0,Calm,Calm,-,N/A,,Overcast,0,2012-12-06 04:55:00
11:15 PM,50.0,35.6,58,30.11,10.0,Calm,Calm,-,N/A,,Overcast,0,2012-12-06 05:15:00
11:35 PM,50.0,37.4,62,30.10,10.0,Calm,Calm,-,N/A,,Overcast,0,2012-12-06 05:35:00
11:55 PM,50.0,39.2,66,30.09,10.0,Calm,Calm,-,N/A,,Overcast,0,2012-12-06 05:55:00